Time,TemperatureF,DewpointF,PressureIn,WindDirection,WindDirectionDegrees,WindSpeedMPH,WindSpeedGustMPH,Humidity,HourlyPrecipIn,Conditions,Clouds,dailyrainin,SoftwareType,DateUTC
2013-11-28 00:00:00,17.4,0.2,28.67,SSE,158,5.6,5.8,46,0.00,,,0.00,VWS V14.01,2013-11-28 06:00:00,
2013-11-28 00:05:00,17.2,0.5,28.67,SSE,158,4.3,6.0,47,0.00,,,0.00,VWS V14.01,2013-11-28 06:05:00,
2013-11-28 00:10:00,16.9,0.2,28.67,SSE,158,4.3,4.3,47,0.00,,,0.00,VWS V14.01,2013-11-28 06:10:00,
2013-11-28 00:15:00,17.1,0.3,28.67,South,180,1.1,5.4,47,0.00,,,0.00,VWS V14.01,2013-11-28 06:15:00,
2013-11-28 00:20:00,16.7,0.0,28.67,SSE,158,2.5,3.4,47,0.00,,,0.00,VWS V14.01,2013-11-28 06:20:00,
2013-11-28 00:25:00,16.3,-0.3,28.67,SSE,158,3.4,4.7,47,0.00,,,0.00,VWS V14.01,2013-11-28 06:25:00,
2013-11-28 00:30:00,16.0,-0.7,28.67,South,180,3.8,4.9,47,0.00,,,0.00,VWS V14.01,2013-11-28 06:30:00,
2013-11-28 00:35:00,15.8,-0.9,28.67,South,180,4.0,4.3,47,0.00,,,0.00,VWS V14.01,2013-11-28 06:35:00,
2013-11-28 00:40:00,15.6,-0.6,28.67,SE,135,2.7,6.0,48,0.00,,,0.00,VWS V14.01,2013-11-28 06:40:00,
2013-11-28 00:45:00,15.3,-0.9,28.67,SSE,158,2.2,3.1,48,0.00,,,0.00,VWS V14.01,2013-11-28 06:45:00,
2013-11-28 00:50:00,14.9,-1.2,28.67,South,180,3.8,4.0,48,0.00,,,0.00,VWS V14.01,2013-11-28 06:50:00,
2013-11-28 00:55:00,14.5,-1.6,28.67,SSE,158,4.7,4.7,48,0.00,,,0.00,VWS V14.01,2013-11-28 06:55:00,
2013-11-28 01:00:00,14.9,-1.2,28.67,SSE,158,3.8,5.6,48,0.00,,,0.00,VWS V14.01,2013-11-28 07:00:00,
2013-11-28 01:05:00,15.1,-0.6,28.67,South,180,2.5,4.9,49,0.00,,,0.00,VWS V14.01,2013-11-28 07:05:00,
2013-11-28 01:10:00,14.5,-1.1,28.67,South,180,3.4,3.4,49,0.00,,,0.00,VWS V14.01,2013-11-28 07:10:00,
2013-11-28 01:15:00,14.4,-1.3,28.67,South,180,2.7,3.4,49,0.00,,,0.00,VWS V14.01,2013-11-28 07:15:00,
2013-11-28 01:20:00,14.0,-1.6,28.67,SSW,202,0.0,3.1,49,0.00,,,0.00,VWS V14.01,2013-11-28 07:20:00,
2013-11-28 01:25:00,13.8,-1.8,28.67,SW,225,1.3,2.0,49,0.00,,,0.00,VWS V14.01,2013-11-28 07:25:00,
2013-11-28 01:30:00,13.8,-1.8,28.67,SSW,202,2.2,4.0,49,0.00,,,0.00,VWS V14.01,2013-11-28 07:30:00,
2013-11-28 01:35:00,13.6,-2.0,28.67,SSW,202,2.7,4.0,49,0.00,,,0.00,VWS V14.01,2013-11-28 07:35:00,
2013-11-28 01:40:00,13.5,-2.1,28.67,SSW,202,2.0,3.4,49,0.00,,,0.00,VWS V14.01,2013-11-28 07:40:00,
2013-11-28 01:45:00,13.1,-2.5,28.67,South,180,1.1,2.9,49,0.00,,,0.00,VWS V14.01,2013-11-28 07:45:00,
2013-11-28 01:50:00,13.1,-2.5,28.67,WNW,292,0.0,1.1,49,0.00,,,0.00,VWS V14.01,2013-11-28 07:50:00,
2013-11-28 01:55:00,13.1,-2.5,28.67,WNW,292,2.7,2.7,49,0.00,,,0.00,VWS V14.01,2013-11-28 07:55:00,
2013-11-28 02:00:00,13.5,-2.1,28.67,WSW,248,2.7,3.1,49,0.00,,,0.00,VWS V14.01,2013-11-28 08:00:00,
2013-11-28 02:05:00,13.5,-2.1,28.67,WNW,292,2.5,2.9,49,0.00,,,0.00,VWS V14.01,2013-11-28 08:05:00,
2013-11-28 02:10:00,12.9,-2.6,28.67,WNW,292,2.2,2.9,49,0.00,,,0.00,VWS V14.01,2013-11-28 08:10:00,
2013-11-28 02:15:00,13.3,-2.3,28.67,WNW,292,4.3,4.9,49,0.00,,,0.00,VWS V14.01,2013-11-28 08:15:00,
2013-11-28 02:20:00,13.3,-2.3,28.67,WNW,292,4.3,5.6,49,0.00,,,0.00,VWS V14.01,2013-11-28 08:20:00,
2013-11-28 02:25:00,13.5,-2.1,28.70,WNW,292,4.9,6.0,49,0.00,,,0.00,VWS V14.01,2013-11-28 08:25:00,
2013-11-28 02:30:00,14.4,1.5,28.70,WNW,292,6.3,7.8,56,0.00,,,0.00,VWS V14.01,2013-11-28 08:30:00,
2013-11-28 02:35:00,15.8,4.0,28.70,WNW,292,7.6,10.1,59,0.00,,,0.00,VWS V14.01,2013-11-28 08:35:00,
2013-11-28 02:40:00,16.9,5.4,28.70,WNW,292,6.5,8.7,60,0.00,,,0.00,VWS V14.01,2013-11-28 08:40:00,
2013-11-28 02:45:00,17.8,5.9,28.70,NNW,338,6.3,9.6,59,0.00,,,0.00,VWS V14.01,2013-11-28 08:45:00,
2013-11-28 02:50:00,18.7,6.4,28.70,NW,315,8.5,10.5,58,0.00,,,0.00,VWS V14.01,2013-11-28 08:50:00,
2013-11-28 02:55:00,19.6,6.1,28.70,NW,315,6.0,11.4,55,0.00,,,0.00,VWS V14.01,2013-11-28 08:55:00,
2013-11-28 03:00:00,19.9,6.0,28.70,WNW,292,7.6,10.5,54,0.00,,,0.00,VWS V14.01,2013-11-28 09:00:00,
2013-11-28 03:05:00,19.8,5.0,28.70,NW,315,7.4,10.1,52,0.00,,,0.00,VWS V14.01,2013-11-28 09:05:00,
2013-11-28 03:10:00,19.4,4.2,28.70,WNW,292,8.1,10.3,51,0.00,,,0.00,VWS V14.01,2013-11-28 09:10:00,
2013-11-28 03:15:00,19.4,3.8,28.70,NNW,338,7.4,12.5,50,0.00,,,0.00,VWS V14.01,2013-11-28 09:15:00,
2013-11-28 03:20:00,19.2,3.6,28.70,NNW,338,9.2,12.3,50,0.00,,,0.00,VWS V14.01,2013-11-28 09:20:00,
2013-11-28 03:25:00,19.2,3.2,28.70,NW,315,10.1,13.9,49,0.00,,,0.00,VWS V14.01,2013-11-28 09:25:00,
2013-11-28 03:30:00,19.0,3.0,28.70,NNW,338,10.3,12.3,49,0.00,,,0.00,VWS V14.01,2013-11-28 09:30:00,
2013-11-28 03:35:00,18.7,2.7,28.70,NNW,338,9.0,11.0,49,0.00,,,0.00,VWS V14.01,2013-11-28 09:35:00,
2013-11-28 03:40:00,18.5,2.5,28.70,NNW,338,9.4,12.3,49,0.00,,,0.00,VWS V14.01,2013-11-28 09:40:00,
2013-11-28 03:45:00,18.7,2.7,28.70,NNW,338,10.3,13.2,49,0.00,,,0.00,VWS V14.01,2013-11-28 09:45:00,
2013-11-28 03:50:00,18.5,2.5,28.70,NW,315,7.8,10.5,49,0.00,,,0.00,VWS V14.01,2013-11-28 09:50:00,
2013-11-28 03:55:00,18.5,2.5,28.73,NNW,338,12.8,12.8,49,0.00,,,0.00,VWS V14.01,2013-11-28 09:55:00,
2013-11-28 04:00:00,18.3,2.4,28.73,NNW,338,10.7,13.0,49,0.00,,,0.00,VWS V14.01,2013-11-28 10:00:00,
2013-11-28 04:05:00,18.1,2.2,28.73,NW,315,8.1,12.1,49,0.00,,,0.00,VWS V14.01,2013-11-28 10:05:00,
2013-11-28 04:10:00,18.0,2.0,28.73,NW,315,6.9,9.8,49,0.00,,,0.00,VWS V14.01,2013-11-28 10:10:00,
2013-11-28 04:15:00,18.0,2.5,28.73,NW,315,8.5,8.5,50,0.00,,,0.00,VWS V14.01,2013-11-28 10:15:00,
2013-11-28 04:20:00,18.3,3.2,28.73,NNW,338,8.1,12.3,51,0.00,,,0.00,VWS V14.01,2013-11-28 10:20:00,
2013-11-28 04:25:00,19.0,3.9,28.73,NW,315,10.5,12.8,51,0.00,,,0.00,VWS V14.01,2013-11-28 10:25:00,
2013-11-28 04:30:00,19.4,3.8,28.73,NW,315,14.5,14.5,50,0.00,,,0.00,VWS V14.01,2013-11-28 10:30:00,
2013-11-28 04:35:00,19.9,3.9,28.73,NNW,338,12.5,15.4,49,0.00,,,0.00,VWS V14.01,2013-11-28 10:35:00,
2013-11-28 04:40:00,20.1,3.6,28.76,NNW,338,9.0,15.4,48,0.00,,,0.00,VWS V14.01,2013-11-28 10:40:00,
2013-11-28 04:45:00,19.9,3.4,28.76,NNW,338,12.8,13.2,48,0.00,,,0.00,VWS V14.01,2013-11-28 10:45:00,
2013-11-28 04:50:00,19.9,3.0,28.76,NW,315,12.5,14.5,47,0.00,,,0.00,VWS V14.01,2013-11-28 10:50:00,
2013-11-28 04:55:00,19.8,2.8,28.76,WNW,292,7.4,14.8,47,0.00,,,0.00,VWS V14.01,2013-11-28 10:55:00,
2013-11-28 05:00:00,19.4,2.9,28.76,NW,315,7.4,10.7,48,0.00,,,0.00,VWS V14.01,2013-11-28 11:00:00,
2013-11-28 05:05:00,19.0,2.6,28.76,NNW,338,8.5,9.4,48,0.00,,,0.00,VWS V14.01,2013-11-28 11:05:00,
2013-11-28 05:10:00,18.7,2.3,28.79,NW,315,9.8,11.0,48,0.00,,,0.00,VWS V14.01,2013-11-28 11:10:00,
2013-11-28 05:15:00,18.7,2.7,28.79,NNW,338,7.6,10.5,49,0.00,,,0.00,VWS V14.01,2013-11-28 11:15:00,
2013-11-28 05:20:00,18.5,2.5,28.79,WNW,292,7.6,10.1,49,0.00,,,0.00,VWS V14.01,2013-11-28 11:20:00,
2013-11-28 05:25:00,18.3,2.4,28.79,NW,315,7.2,10.1,49,0.00,,,0.00,VWS V14.01,2013-11-28 11:25:00,
2013-11-28 05:30:00,18.1,2.6,28.79,NW,315,7.8,8.7,50,0.00,,,0.00,VWS V14.01,2013-11-28 11:30:00,
2013-11-28 05:35:00,18.0,2.9,28.79,NW,315,7.8,10.5,51,0.00,,,0.00,VWS V14.01,2013-11-28 11:35:00,
2013-11-28 05:40:00,17.6,3.0,28.79,WNW,292,7.8,10.5,52,0.00,,,0.00,VWS V14.01,2013-11-28 11:40:00,
2013-11-28 05:45:00,17.6,3.0,28.79,NNW,338,10.3,10.7,52,0.00,,,0.00,VWS V14.01,2013-11-28 11:45:00,
2013-11-28 05:50:00,17.4,3.2,28.79,NW,315,6.5,13.2,53,0.00,,,0.00,VWS V14.01,2013-11-28 11:50:00,
2013-11-28 05:55:00,17.6,3.4,28.79,NW,315,7.8,12.8,53,0.00,,,0.00,VWS V14.01,2013-11-28 11:55:00,
2013-11-28 06:00:00,17.2,3.1,28.79,NW,315,8.1,10.1,53,0.00,,,0.00,VWS V14.01,2013-11-28 12:00:00,
2013-11-28 06:05:00,17.1,3.3,28.79,NNW,338,8.7,8.7,54,0.00,,,0.00,VWS V14.01,2013-11-28 12:05:00,
2013-11-28 06:10:00,17.1,3.3,28.82,NNW,338,12.5,12.5,54,0.00,,,0.00,VWS V14.01,2013-11-28 12:10:00,
2013-11-28 06:15:00,17.4,3.6,28.82,NW,315,7.4,12.5,54,0.00,,,0.00,VWS V14.01,2013-11-28 12:15:00,
2013-11-28 06:20:00,17.4,3.6,28.82,WNW,292,8.5,10.7,54,0.00,,,0.00,VWS V14.01,2013-11-28 12:20:00,
2013-11-28 06:25:00,17.4,4.0,28.82,NNW,338,7.6,12.5,55,0.00,,,0.00,VWS V14.01,2013-11-28 12:25:00,
2013-11-28 06:30:00,17.4,4.0,28.82,NW,315,8.5,10.5,55,0.00,,,0.00,VWS V14.01,2013-11-28 12:30:00,
2013-11-28 06:35:00,17.4,4.0,28.82,NNW,338,9.0,13.0,55,0.00,,,0.00,VWS V14.01,2013-11-28 12:35:00,
2013-11-28 06:40:00,17.4,4.0,28.85,NNW,338,8.5,12.5,55,0.00,,,0.00,VWS V14.01,2013-11-28 12:40:00,
2013-11-28 06:45:00,17.1,3.3,28.85,NW,315,10.1,13.2,54,0.00,,,0.00,VWS V14.01,2013-11-28 12:45:00,
2013-11-28 06:50:00,17.2,3.9,28.85,NW,315,11.0,12.5,55,0.00,,,0.00,VWS V14.01,2013-11-28 12:50:00,
2013-11-28 06:55:00,17.1,3.7,28.85,NNW,338,8.1,12.5,55,0.00,,,0.00,VWS V14.01,2013-11-28 12:55:00,
2013-11-28 07:00:00,17.1,3.7,28.85,NNW,338,10.1,12.8,55,0.00,,,0.00,VWS V14.01,2013-11-28 13:00:00,
2013-11-28 07:05:00,17.1,3.7,28.85,NNW,338,10.1,14.8,55,0.00,,,0.00,VWS V14.01,2013-11-28 13:05:00,
2013-11-28 07:10:00,16.9,3.1,28.85,NW,315,9.0,12.3,54,0.00,,,0.00,VWS V14.01,2013-11-28 13:10:00,
2013-11-28 07:15:00,16.9,3.1,28.85,NNW,338,10.3,13.2,54,0.00,,,0.00,VWS V14.01,2013-11-28 13:15:00,
2013-11-28 07:20:00,16.7,3.0,28.85,NNW,338,9.6,10.3,54,0.00,,,0.00,VWS V14.01,2013-11-28 13:20:00,
2013-11-28 07:25:00,16.7,3.0,28.88,NNW,338,8.1,13.0,54,0.00,,,0.00,VWS V14.01,2013-11-28 13:25:00,
2013-11-28 07:30:00,16.7,3.0,28.88,NNW,338,8.5,11.0,54,0.00,,,0.00,VWS V14.01,2013-11-28 13:30:00,
2013-11-28 07:35:00,16.7,3.0,28.88,NNW,338,5.8,10.3,54,0.00,,,0.00,VWS V14.01,2013-11-28 13:35:00,
2013-11-28 07:40:00,16.7,3.0,28.88,NNW,338,7.6,11.9,54,0.00,,,0.00,VWS V14.01,2013-11-28 13:40:00,
2013-11-28 07:45:00,16.9,3.1,28.88,NNW,338,6.9,10.7,54,0.00,,,0.00,VWS V14.01,2013-11-28 13:45:00,
2013-11-28 07:50:00,17.1,2.9,28.88,NNW,338,10.1,10.1,53,0.00,,,0.00,VWS V14.01,2013-11-28 13:50:00,
2013-11-28 07:55:00,17.6,3.0,28.88,NNW,338,9.8,11.0,52,0.00,,,0.00,VWS V14.01,2013-11-28 13:55:00,
2013-11-28 08:00:00,18.1,2.6,28.88,NNW,338,8.5,12.8,50,0.00,,,0.00,VWS V14.01,2013-11-28 14:00:00,
2013-11-28 08:05:00,18.3,2.4,28.88,NNW,338,7.2,11.0,49,0.00,,,0.00,VWS V14.01,2013-11-28 14:05:00,
2013-11-28 08:10:00,18.5,2.1,28.91,NNW,338,7.2,12.8,48,0.00,,,0.00,VWS V14.01,2013-11-28 14:10:00,
2013-11-28 08:15:00,19.2,2.8,28.91,NNW,338,10.5,14.5,48,0.00,,,0.00,VWS V14.01,2013-11-28 14:15:00,
2013-11-28 08:20:00,19.4,2.5,28.91,NNW,338,7.4,11.9,47,0.00,,,0.00,VWS V14.01,2013-11-28 14:20:00,
2013-11-28 08:25:00,19.9,2.5,28.91,NW,315,10.3,12.3,46,0.00,,,0.00,VWS V14.01,2013-11-28 14:25:00,
2013-11-28 08:30:00,20.3,2.8,28.91,NNW,338,10.7,12.1,46,0.00,,,0.00,VWS V14.01,2013-11-28 14:30:00,
2013-11-28 08:35:00,20.5,2.5,28.91,NNW,338,12.5,12.5,45,0.00,,,0.00,VWS V14.01,2013-11-28 14:35:00,
2013-11-28 08:40:00,20.8,2.9,28.91,NNW,338,10.7,12.5,45,0.00,,,0.00,VWS V14.01,2013-11-28 14:40:00,
2013-11-28 08:45:00,21.2,3.2,28.91,NNW,338,8.7,11.0,45,0.00,,,0.00,VWS V14.01,2013-11-28 14:45:00,
2013-11-28 08:50:00,21.6,3.0,28.91,NNW,338,8.5,11.4,44,0.00,,,0.00,VWS V14.01,2013-11-28 14:50:00,
2013-11-28 08:55:00,21.9,3.4,28.94,NW,315,6.9,12.8,44,0.00,,,0.00,VWS V14.01,2013-11-28 14:55:00,
2013-11-28 09:00:00,22.1,3.0,28.94,North,0,9.2,11.2,43,0.00,,,0.00,VWS V14.01,2013-11-28 15:00:00,
2013-11-28 09:05:00,22.8,3.7,28.94,WNW,292,13.6,13.6,43,0.00,,,0.00,VWS V14.01,2013-11-28 15:05:00,
2013-11-28 09:10:00,22.8,3.7,28.94,NNW,338,9.2,13.6,43,0.00,,,0.00,VWS V14.01,2013-11-28 15:10:00,
2013-11-28 09:15:00,23.4,3.7,28.94,NNW,338,12.5,12.5,42,0.00,,,0.00,VWS V14.01,2013-11-28 15:15:00,
2013-11-28 09:20:00,23.5,3.8,28.94,NNW,338,10.3,12.5,42,0.00,,,0.00,VWS V14.01,2013-11-28 15:20:00,
2013-11-28 09:25:00,24.1,4.3,28.94,NNW,338,7.2,11.4,42,0.00,,,0.00,VWS V14.01,2013-11-28 15:25:00,
2013-11-28 09:30:00,24.3,4.5,28.94,NNW,338,7.8,12.3,42,0.00,,,0.00,VWS V14.01,2013-11-28 15:30:00,
2013-11-28 09:35:00,24.6,4.8,28.94,NNW,338,8.5,13.0,42,0.00,,,0.00,VWS V14.01,2013-11-28 15:35:00,
2013-11-28 09:40:00,25.0,4.6,28.97,NNW,338,11.0,11.0,41,0.00,,,0.00,VWS V14.01,2013-11-28 15:40:00,
2013-11-28 09:45:00,25.2,4.8,28.97,NNW,338,7.6,12.5,41,0.00,,,0.00,VWS V14.01,2013-11-28 15:45:00,
2013-11-28 09:50:00,25.9,5.4,28.97,NNW,338,7.8,12.5,41,0.00,,,0.00,VWS V14.01,2013-11-28 15:50:00,
2013-11-28 09:55:00,26.4,5.9,28.97,NNW,338,9.2,12.8,41,0.00,,,0.00,VWS V14.01,2013-11-28 15:55:00,
2013-11-28 10:00:00,26.8,5.7,28.97,North,0,9.8,12.8,40,0.00,,,0.00,VWS V14.01,2013-11-28 16:00:00,
2013-11-28 10:05:00,27.5,6.4,28.97,NNW,338,9.8,11.0,40,0.00,,,0.00,VWS V14.01,2013-11-28 16:05:00,
2013-11-28 10:10:00,27.9,6.1,28.97,NNW,338,6.3,13.2,39,0.00,,,0.00,VWS V14.01,2013-11-28 16:10:00,
2013-11-28 10:15:00,28.0,5.7,28.97,NNW,338,5.6,10.5,38,0.00,,,0.00,VWS V14.01,2013-11-28 16:15:00,
2013-11-28 10:20:00,28.6,5.6,28.97,NNW,338,7.6,10.5,37,0.00,,,0.00,VWS V14.01,2013-11-28 16:20:00,
2013-11-28 10:25:00,29.5,6.4,28.97,WNW,292,5.6,10.7,37,0.00,,,0.00,VWS V14.01,2013-11-28 16:25:00,
2013-11-28 10:30:00,28.9,5.9,28.97,NNW,338,8.7,12.1,37,0.00,,,0.00,VWS V14.01,2013-11-28 16:30:00,
2013-11-28 10:35:00,30.0,6.9,28.97,NNW,338,10.3,11.0,37,0.00,,,0.00,VWS V14.01,2013-11-28 16:35:00,
2013-11-28 10:40:00,30.7,7.0,28.97,NW,315,9.8,10.3,36,0.00,,,0.00,VWS V14.01,2013-11-28 16:40:00,
2013-11-28 10:45:00,31.3,7.4,28.97,NNW,338,8.1,11.0,36,0.00,,,0.00,VWS V14.01,2013-11-28 16:45:00,
2013-11-28 10:50:00,31.3,6.8,28.97,NNW,338,6.9,11.0,35,0.00,,,0.00,VWS V14.01,2013-11-28 16:50:00,
2013-11-28 10:55:00,31.8,7.3,28.97,NNE,22,6.0,13.9,35,0.00,,,0.00,VWS V14.01,2013-11-28 16:55:00,
2013-11-28 11:00:00,32.2,7.6,28.97,NNW,338,9.6,13.0,35,0.00,,,0.00,VWS V14.01,2013-11-28 17:00:00,
2013-11-28 11:05:00,32.2,7.6,28.97,NNW,338,10.3,12.5,35,0.00,,,0.00,VWS V14.01,2013-11-28 17:05:00,
2013-11-28 11:10:00,32.5,7.3,28.97,NW,315,6.3,13.2,34,0.00,,,0.00,VWS V14.01,2013-11-28 17:10:00,
2013-11-28 11:15:00,32.7,7.5,28.97,NNW,338,10.7,13.2,34,0.00,,,0.00,VWS V14.01,2013-11-28 17:15:00,
2013-11-28 11:20:00,32.5,7.3,28.97,NNW,338,5.8,12.8,34,0.00,,,0.00,VWS V14.01,2013-11-28 17:20:00,
2013-11-28 11:25:00,32.9,7.6,28.97,NNW,338,8.7,12.5,34,0.00,,,0.00,VWS V14.01,2013-11-28 17:25:00,
2013-11-28 11:30:00,33.6,8.3,28.97,NNW,338,5.6,10.7,34,0.00,,,0.00,VWS V14.01,2013-11-28 17:30:00,
2013-11-28 11:35:00,33.1,7.1,28.97,NW,315,8.7,11.0,33,0.00,,,0.00,VWS V14.01,2013-11-28 17:35:00,
2013-11-28 11:40:00,34.0,7.9,28.97,NNW,338,6.3,10.7,33,0.00,,,0.00,VWS V14.01,2013-11-28 17:40:00,
2013-11-28 11:45:00,34.5,8.4,28.97,NNW,338,7.8,12.5,33,0.00,,,0.00,VWS V14.01,2013-11-28 17:45:00,
2013-11-28 11:50:00,34.0,7.2,28.97,NNW,338,8.5,12.5,32,0.00,,,0.00,VWS V14.01,2013-11-28 17:50:00,
2013-11-28 11:55:00,34.0,7.2,28.97,NNW,338,7.6,11.0,32,0.00,,,0.00,VWS V14.01,2013-11-28 17:55:00,
2013-11-28 12:00:00,34.0,7.2,28.97,WNW,292,7.8,12.5,32,0.00,,,0.00,VWS V14.01,2013-11-28 18:00:00,
2013-11-28 12:05:00,35.1,8.2,28.97,NNW,338,7.6,10.3,32,0.00,,,0.00,VWS V14.01,2013-11-28 18:05:00,
2013-11-28 12:10:00,34.7,7.9,29.00,NNW,338,9.4,11.0,32,0.00,,,0.00,VWS V14.01,2013-11-28 18:10:00,
2013-11-28 12:15:00,34.7,7.9,29.00,NW,315,7.6,13.2,32,0.00,,,0.00,VWS V14.01,2013-11-28 18:15:00,
2013-11-28 12:20:00,35.1,8.2,29.00,NW,315,7.8,12.3,32,0.00,,,0.00,VWS V14.01,2013-11-28 18:20:00,
2013-11-28 12:25:00,35.1,8.2,29.00,NNW,338,8.7,10.7,32,0.00,,,0.00,VWS V14.01,2013-11-28 18:25:00,
2013-11-28 12:30:00,35.8,8.1,29.00,NNE,22,10.3,11.0,31,0.00,,,0.00,VWS V14.01,2013-11-28 18:30:00,
2013-11-28 12:35:00,35.8,8.1,29.00,NNW,338,12.1,12.1,31,0.00,,,0.00,VWS V14.01,2013-11-28 18:35:00,
2013-11-28 12:40:00,35.6,8.0,29.00,NW,315,10.3,13.4,31,0.00,,,0.00,VWS V14.01,2013-11-28 18:40:00,
2013-11-28 12:45:00,35.6,8.0,29.00,WNW,292,8.1,16.6,31,0.00,,,0.00,VWS V14.01,2013-11-28 18:45:00,
2013-11-28 12:50:00,35.8,8.1,29.00,NNW,338,11.0,11.0,31,0.00,,,0.00,VWS V14.01,2013-11-28 18:50:00,
2013-11-28 12:55:00,34.5,7.0,29.00,WNW,292,8.5,13.0,31,0.00,,,0.00,VWS V14.01,2013-11-28 18:55:00,
2013-11-28 13:00:00,35.6,8.0,29.00,NNW,338,6.5,12.3,31,0.00,,,0.00,VWS V14.01,2013-11-28 19:00:00,
2013-11-28 13:05:00,35.6,8.0,29.00,NNW,338,6.5,11.0,31,0.00,,,0.00,VWS V14.01,2013-11-28 19:05:00,
2013-11-28 13:10:00,35.8,8.1,29.00,NNW,338,7.2,12.1,31,0.00,,,0.00,VWS V14.01,2013-11-28 19:10:00,
2013-11-28 13:15:00,35.6,8.0,29.00,NNW,338,10.3,10.7,31,0.00,,,0.00,VWS V14.01,2013-11-28 19:15:00,
2013-11-28 13:20:00,36.5,8.8,29.00,NW,315,13.0,13.0,31,0.00,,,0.00,VWS V14.01,2013-11-28 19:20:00,
2013-11-28 13:25:00,36.1,8.4,29.00,NNW,338,5.8,13.0,31,0.00,,,0.00,VWS V14.01,2013-11-28 19:25:00,
2013-11-28 13:30:00,36.0,8.3,29.00,NNW,338,7.6,11.0,31,0.00,,,0.00,VWS V14.01,2013-11-28 19:30:00,
2013-11-28 13:35:00,35.6,8.0,29.00,NNW,338,6.7,14.8,31,0.00,,,0.00,VWS V14.01,2013-11-28 19:35:00,
2013-11-28 13:40:00,35.8,7.4,29.00,NNW,338,6.5,8.7,30,0.00,,,0.00,VWS V14.01,2013-11-28 19:40:00,
2013-11-28 13:45:00,35.6,7.2,29.00,NNW,338,6.3,13.0,30,0.00,,,0.00,VWS V14.01,2013-11-28 19:45:00,
2013-11-28 13:50:00,36.3,8.6,29.00,NNW,338,7.4,12.3,31,0.00,,,0.00,VWS V14.01,2013-11-28 19:50:00,
2013-11-28 13:55:00,36.3,8.6,29.00,NNW,338,10.7,11.0,31,0.00,,,0.00,VWS V14.01,2013-11-28 19:55:00,
2013-11-28 14:00:00,36.7,8.9,29.00,NNW,338,8.1,12.3,31,0.00,,,0.00,VWS V14.01,2013-11-28 20:00:00,
2013-11-28 14:05:00,35.4,7.8,29.00,NNW,338,7.8,11.0,31,0.00,,,0.00,VWS V14.01,2013-11-28 20:05:00,
2013-11-28 14:10:00,36.3,8.6,29.00,NNW,338,9.2,9.2,31,0.00,,,0.00,VWS V14.01,2013-11-28 20:10:00,
2013-11-28 14:15:00,35.4,7.8,29.00,NW,315,8.1,13.0,31,0.00,,,0.00,VWS V14.01,2013-11-28 20:15:00,
2013-11-28 14:20:00,35.4,7.8,29.00,NNW,338,8.7,12.5,31,0.00,,,0.00,VWS V14.01,2013-11-28 20:20:00,
2013-11-28 14:25:00,35.1,7.5,29.00,NNW,338,8.1,12.8,31,0.00,,,0.00,VWS V14.01,2013-11-28 20:25:00,
2013-11-28 14:30:00,35.1,7.5,29.00,NNW,338,8.5,10.1,31,0.00,,,0.00,VWS V14.01,2013-11-28 20:30:00,
2013-11-28 14:35:00,35.1,7.5,29.00,NNW,338,7.4,13.2,31,0.00,,,0.00,VWS V14.01,2013-11-28 20:35:00,
2013-11-28 14:40:00,35.2,7.7,29.00,NNW,338,10.7,10.7,31,0.00,,,0.00,VWS V14.01,2013-11-28 20:40:00,
2013-11-28 14:45:00,34.9,7.3,29.00,NNW,338,4.0,10.7,31,0.00,,,0.00,VWS V14.01,2013-11-28 20:45:00,
2013-11-28 14:50:00,35.4,7.8,29.00,NNW,338,5.6,10.1,31,0.00,,,0.00,VWS V14.01,2013-11-28 20:50:00,
2013-11-28 14:55:00,34.9,7.3,29.00,NNW,338,6.7,11.0,31,0.00,,,0.00,VWS V14.01,2013-11-28 20:55:00,
2013-11-28 15:00:00,34.7,7.2,29.00,North,0,6.0,12.3,31,0.00,,,0.00,VWS V14.01,2013-11-28 21:00:00,
2013-11-28 15:05:00,34.0,6.5,29.00,NNW,338,9.6,12.5,31,0.00,,,0.00,VWS V14.01,2013-11-28 21:05:00,
2013-11-28 15:10:00,34.2,6.7,29.00,NNW,338,10.5,10.5,31,0.00,,,0.00,VWS V14.01,2013-11-28 21:10:00,
2013-11-28 15:15:00,34.3,6.9,29.00,NNW,338,5.6,10.5,31,0.00,,,0.00,VWS V14.01,2013-11-28 21:15:00,
2013-11-28 15:20:00,34.0,6.5,29.00,NNW,338,9.8,9.8,31,0.00,,,0.00,VWS V14.01,2013-11-28 21:20:00,
2013-11-28 15:25:00,33.8,6.4,29.03,NNW,338,6.0,9.8,31,0.00,,,0.00,VWS V14.01,2013-11-28 21:25:00,
2013-11-28 15:30:00,33.6,6.2,29.03,NNW,338,5.8,8.7,31,0.00,,,0.00,VWS V14.01,2013-11-28 21:30:00,
2013-11-28 15:35:00,33.4,6.1,29.03,NW,315,9.0,12.1,31,0.00,,,0.00,VWS V14.01,2013-11-28 21:35:00,
2013-11-28 15:40:00,33.3,5.9,29.03,NNW,338,6.3,9.8,31,0.00,,,0.00,VWS V14.01,2013-11-28 21:40:00,
2013-11-28 15:45:00,33.1,5.8,29.03,NNW,338,6.3,8.1,31,0.00,,,0.00,VWS V14.01,2013-11-28 21:45:00,
2013-11-28 15:50:00,32.7,5.4,29.03,NNW,338,7.6,9.6,31,0.00,,,0.00,VWS V14.01,2013-11-28 21:50:00,
2013-11-28 15:55:00,32.5,5.3,29.03,NNW,338,7.4,10.1,31,0.00,,,0.00,VWS V14.01,2013-11-28 21:55:00,
2013-11-28 16:00:00,31.8,4.6,29.03,NNW,338,7.8,10.1,31,0.00,,,0.00,VWS V14.01,2013-11-28 22:00:00,
2013-11-28 16:05:00,31.3,4.2,29.03,NNW,338,7.6,10.1,31,0.00,,,0.00,VWS V14.01,2013-11-28 22:05:00,
2013-11-28 16:10:00,30.6,4.2,29.06,NW,315,6.5,9.6,32,0.00,,,0.00,VWS V14.01,2013-11-28 22:10:00,
2013-11-28 16:15:00,29.8,3.6,29.06,NNW,338,5.6,10.3,32,0.00,,,0.00,VWS V14.01,2013-11-28 22:15:00,
2013-11-28 16:20:00,29.1,3.0,29.06,WNW,292,4.3,7.6,32,0.00,,,0.00,VWS V14.01,2013-11-28 22:20:00,
2013-11-28 16:25:00,28.0,2.7,29.06,NNW,338,7.4,8.7,33,0.00,,,0.00,VWS V14.01,2013-11-28 22:25:00,
2013-11-28 16:30:00,27.5,2.2,29.06,WNW,292,6.5,8.7,33,0.00,,,0.00,VWS V14.01,2013-11-28 22:30:00,
2013-11-28 16:35:00,26.8,1.5,29.06,NNW,338,4.9,7.2,33,0.00,,,0.00,VWS V14.01,2013-11-28 22:35:00,
2013-11-28 16:40:00,26.1,1.5,29.06,NNW,338,4.9,6.5,34,0.00,,,0.00,VWS V14.01,2013-11-28 22:40:00,
2013-11-28 16:45:00,25.3,0.9,29.06,NNW,338,3.8,5.6,34,0.00,,,0.00,VWS V14.01,2013-11-28 22:45:00,
2013-11-28 16:50:00,24.6,0.9,29.06,NNW,338,3.8,6.0,35,0.00,,,0.00,VWS V14.01,2013-11-28 22:50:00,
2013-11-28 16:55:00,23.9,0.2,29.06,NNW,338,2.7,4.3,35,0.00,,,0.00,VWS V14.01,2013-11-28 22:55:00,
2013-11-28 17:00:00,23.2,0.2,29.06,NNW,338,2.9,3.6,36,0.00,,,0.00,VWS V14.01,2013-11-28 23:00:00,
2013-11-28 17:05:00,22.8,0.5,29.06,NNW,338,3.4,4.0,37,0.00,,,0.00,VWS V14.01,2013-11-28 23:05:00,
2013-11-28 17:10:00,22.6,1.4,29.06,NNW,338,3.6,4.3,39,0.00,,,0.00,VWS V14.01,2013-11-28 23:10:00,
2013-11-28 17:15:00,22.1,1.5,29.06,NNW,338,3.4,4.0,40,0.00,,,0.00,VWS V14.01,2013-11-28 23:15:00,
2013-11-28 17:20:00,21.4,0.3,29.06,NNW,338,2.7,3.4,39,0.00,,,0.00,VWS V14.01,2013-11-28 23:20:00,
2013-11-28 17:25:00,21.2,0.7,29.06,NNW,338,2.9,3.6,40,0.00,,,0.00,VWS V14.01,2013-11-28 23:25:00,
2013-11-28 17:30:00,20.7,0.2,29.06,NNW,338,2.0,4.0,40,0.00,,,0.00,VWS V14.01,2013-11-28 23:30:00,
2013-11-28 17:35:00,20.3,0.4,29.06,NNW,338,2.7,3.1,41,0.00,,,0.00,VWS V14.01,2013-11-28 23:35:00,
2013-11-28 17:40:00,20.3,1.4,29.06,NNW,338,2.9,3.8,43,0.00,,,0.00,VWS V14.01,2013-11-28 23:40:00,
2013-11-28 17:45:00,19.6,0.2,29.06,NNW,338,2.7,3.4,42,0.00,,,0.00,VWS V14.01,2013-11-28 23:45:00,
2013-11-28 17:50:00,19.0,0.2,29.06,NNW,338,2.9,3.6,43,0.00,,,0.00,VWS V14.01,2013-11-28 23:50:00,
2013-11-28 17:55:00,18.9,0.1,29.09,NNW,338,2.9,4.3,43,0.00,,,0.00,VWS V14.01,2013-11-28 23:55:00,
2013-11-28 18:00:00,18.1,-0.6,29.09,NNW,338,2.7,3.1,43,0.00,,,0.00,VWS V14.01,2013-11-29 00:00:00,
2013-11-28 18:05:00,17.6,-0.6,29.09,NNW,338,3.1,3.6,44,0.00,,,0.00,VWS V14.01,2013-11-29 00:05:00,
2013-11-28 18:10:00,17.4,-0.8,29.09,NNW,338,3.1,3.6,44,0.00,,,0.00,VWS V14.01,2013-11-29 00:10:00,
2013-11-28 18:15:00,17.1,-0.6,29.09,NNW,338,3.1,3.8,45,0.00,,,0.00,VWS V14.01,2013-11-29 00:15:00,
2013-11-28 18:20:00,16.7,-0.9,29.09,NNW,338,3.1,4.0,45,0.00,,,0.00,VWS V14.01,2013-11-29 00:20:00,
2013-11-28 18:25:00,16.5,-1.1,29.09,NNW,338,3.4,3.8,45,0.00,,,0.00,VWS V14.01,2013-11-29 00:25:00,
2013-11-28 18:30:00,16.7,-0.5,29.09,NNW,338,2.7,4.0,46,0.00,,,0.00,VWS V14.01,2013-11-29 00:30:00,
2013-11-28 18:35:00,16.9,-0.3,29.09,NNW,338,2.9,4.0,46,0.00,,,0.00,VWS V14.01,2013-11-29 00:35:00,
2013-11-28 18:40:00,16.0,-1.1,29.09,NW,315,2.7,3.1,46,0.00,,,0.00,VWS V14.01,2013-11-29 00:40:00,
2013-11-28 18:45:00,15.4,-1.6,29.09,NNW,338,2.5,3.4,46,0.00,,,0.00,VWS V14.01,2013-11-29 00:45:00,
2013-11-28 18:50:00,14.5,-2.9,29.09,NNW,338,2.5,2.5,45,0.00,,,0.00,VWS V14.01,2013-11-29 00:50:00,
2013-11-28 18:55:00,14.9,-2.1,29.09,NNW,338,2.2,3.1,46,0.00,,,0.00,VWS V14.01,2013-11-29 00:55:00,
2013-11-28 19:00:00,14.4,-2.6,29.09,NNW,338,2.5,2.7,46,0.00,,,0.00,VWS V14.01,2013-11-29 01:00:00,
2013-11-28 19:05:00,14.9,-1.7,29.09,NNW,338,2.2,3.4,47,0.00,,,0.00,VWS V14.01,2013-11-29 01:05:00,
2013-11-28 19:10:00,14.9,-1.7,29.09,NNW,338,2.7,3.1,47,0.00,,,0.00,VWS V14.01,2013-11-29 01:10:00,
2013-11-28 19:15:00,13.8,-2.7,29.09,NNW,338,2.5,3.1,47,0.00,,,0.00,VWS V14.01,2013-11-29 01:15:00,
2013-11-28 19:20:00,14.2,-2.3,29.09,NNW,338,2.9,3.8,47,0.00,,,0.00,VWS V14.01,2013-11-29 01:20:00,
2013-11-28 19:25:00,13.6,-2.4,29.12,NNW,338,2.5,2.9,48,0.00,,,0.00,VWS V14.01,2013-11-29 01:25:00,
2013-11-28 19:30:00,13.6,-2.4,29.11,NNW,338,2.5,3.6,48,0.00,,,0.00,VWS V14.01,2013-11-29 01:30:00,
2013-11-28 19:35:00,13.5,-2.6,29.12,NE,45,2.2,2.5,48,0.00,,,0.00,VWS V14.01,2013-11-29 01:35:00,
2013-11-28 19:40:00,14.5,-1.6,29.09,NW,315,1.3,3.4,48,0.00,,,0.00,VWS V14.01,2013-11-29 01:40:00,
2013-11-28 19:45:00,14.2,-2.3,29.09,NNW,338,1.6,2.7,47,0.00,,,0.00,VWS V14.01,2013-11-29 01:45:00,
2013-11-28 19:50:00,14.2,-2.3,29.09,NW,315,1.6,2.5,47,0.00,,,0.00,VWS V14.01,2013-11-29 01:50:00,
2013-11-28 19:55:00,13.6,-2.8,29.12,NNW,338,1.1,2.2,47,0.00,,,0.00,VWS V14.01,2013-11-29 01:55:00,
2013-11-28 20:00:00,13.6,-2.8,29.12,NW,315,0.0,2.2,47,0.00,,,0.00,VWS V14.01,2013-11-29 02:00:00,
2013-11-28 20:05:00,13.8,-2.7,29.11,NNW,338,1.6,2.5,47,0.00,,,0.00,VWS V14.01,2013-11-29 02:05:00,
2013-11-28 20:10:00,13.5,-3.0,29.09,NNW,338,1.3,2.0,47,0.00,,,0.00,VWS V14.01,2013-11-29 02:10:00,
2013-11-28 20:15:00,13.5,-3.0,29.09,NNW,338,2.5,2.5,47,0.00,,,0.00,VWS V14.01,2013-11-29 02:15:00,
2013-11-28 20:20:00,13.3,-3.2,29.09,NNW,338,1.6,2.5,47,0.00,,,0.00,VWS V14.01,2013-11-29 02:20:00,
2013-11-28 20:25:00,12.9,-3.5,29.09,NNW,338,1.3,2.2,47,0.00,,,0.00,VWS V14.01,2013-11-29 02:25:00,
2013-11-28 20:30:00,13.3,-3.2,29.09,NNW,338,2.2,2.9,47,0.00,,,0.00,VWS V14.01,2013-11-29 02:30:00,
2013-11-28 20:35:00,12.9,-3.5,29.09,NNW,338,2.5,2.7,47,0.00,,,0.00,VWS V14.01,2013-11-29 02:35:00,
2013-11-28 20:40:00,13.3,-3.2,29.12,NNW,338,2.0,2.5,47,0.00,,,0.00,VWS V14.01,2013-11-29 02:40:00,
2013-11-28 20:45:00,12.9,-3.5,29.12,NNW,338,2.0,2.7,47,0.00,,,0.00,VWS V14.01,2013-11-29 02:45:00,
2013-11-28 20:50:00,12.2,-4.2,29.12,NNW,338,1.3,2.0,47,0.00,,,0.00,VWS V14.01,2013-11-29 02:50:00,
2013-11-28 20:55:00,12.0,-4.3,29.12,NNW,338,1.6,2.0,47,0.00,,,0.00,VWS V14.01,2013-11-29 02:55:00,
2013-11-28 21:00:00,12.0,-4.3,29.12,NNW,338,1.3,2.7,47,0.00,,,0.00,VWS V14.01,2013-11-29 03:00:00,
2013-11-28 21:05:00,12.6,-3.8,29.12,NNE,22,2.0,3.6,47,0.00,,,0.00,VWS V14.01,2013-11-29 03:05:00,
2013-11-28 21:10:00,12.7,-3.7,29.12,NNW,338,1.1,2.0,47,0.00,,,0.00,VWS V14.01,2013-11-29 03:10:00,
2013-11-28 21:15:00,12.2,-4.2,29.12,NNE,22,0.9,2.0,47,0.00,,,0.00,VWS V14.01,2013-11-29 03:15:00,
2013-11-28 21:20:00,11.7,-4.7,29.12,ENE,68,0.0,2.9,47,0.00,,,0.00,VWS V14.01,2013-11-29 03:20:00,
2013-11-28 21:25:00,10.9,-5.3,29.12,NNW,338,2.2,2.2,47,0.00,,,0.00,VWS V14.01,2013-11-29 03:25:00,
2013-11-28 21:30:00,11.3,-5.0,29.12,NNW,338,2.0,2.7,47,0.00,,,0.00,VWS V14.01,2013-11-29 03:30:00,
2013-11-28 21:35:00,11.5,-4.8,29.12,ENE,68,2.0,2.2,47,0.00,,,0.00,VWS V14.01,2013-11-29 03:35:00,
2013-11-28 21:40:00,10.9,-5.3,29.09,NNE,22,1.1,2.2,47,0.00,,,0.00,VWS V14.01,2013-11-29 03:40:00,
2013-11-28 21:45:00,10.8,-5.5,29.09,North,0,2.7,2.7,47,0.00,,,0.00,VWS V14.01,2013-11-29 03:45:00,
2013-11-28 21:50:00,10.9,-5.3,29.09,NNW,338,3.1,3.8,47,0.00,,,0.00,VWS V14.01,2013-11-29 03:50:00,
2013-11-28 21:55:00,10.8,-5.5,29.12,SSW,202,1.1,3.1,47,0.00,,,0.00,VWS V14.01,2013-11-29 03:55:00,
2013-11-28 22:00:00,10.0,-6.2,29.12,NE,45,0.0,1.3,47,0.00,,,0.00,VWS V14.01,2013-11-29 04:00:00,
2013-11-28 22:05:00,9.1,-7.0,29.12,ENE,68,0.0,0.0,47,0.00,,,0.00,VWS V14.01,2013-11-29 04:05:00,
2013-11-28 22:10:00,8.4,-7.7,29.12,SSW,202,0.0,0.0,47,0.00,,,0.00,VWS V14.01,2013-11-29 04:10:00,
2013-11-28 22:15:00,8.1,-8.0,29.12,SSW,202,0.0,0.0,47,0.00,,,0.00,VWS V14.01,2013-11-29 04:15:00,
2013-11-28 22:20:00,7.9,-8.1,29.12,SSW,202,0.0,0.0,47,0.00,,,0.00,VWS V14.01,2013-11-29 04:20:00,
2013-11-28 22:25:00,7.5,-8.5,29.12,SSW,202,0.0,0.0,47,0.00,,,0.00,VWS V14.01,2013-11-29 04:25:00,
2013-11-28 22:30:00,7.2,-8.8,29.12,SSW,202,0.0,0.0,47,0.00,,,0.00,VWS V14.01,2013-11-29 04:30:00,
2013-11-28 22:35:00,7.0,-9.0,29.12,SSW,202,0.0,0.0,47,0.00,,,0.00,VWS V14.01,2013-11-29 04:35:00,
2013-11-28 22:40:00,6.8,-9.1,29.12,NNE,22,2.0,2.0,47,0.00,,,0.00,VWS V14.01,2013-11-29 04:40:00,
2013-11-28 22:45:00,7.0,-9.0,29.12,NNE,22,2.5,2.7,47,0.00,,,0.00,VWS V14.01,2013-11-29 04:45:00,
2013-11-28 22:50:00,7.0,-9.0,29.12,ENE,68,0.0,2.5,47,0.00,,,0.00,VWS V14.01,2013-11-29 04:50:00,
2013-11-28 22:55:00,6.8,-9.1,29.12,ENE,68,0.0,0.0,47,0.00,,,0.00,VWS V14.01,2013-11-29 04:55:00,
2013-11-28 23:00:00,7.0,-9.0,29.12,WNW,292,0.0,2.0,47,0.00,,,0.00,VWS V14.01,2013-11-29 05:00:00,
2013-11-28 23:05:00,7.0,-9.0,29.12,WNW,292,0.0,0.0,47,0.00,,,0.00,VWS V14.01,2013-11-29 05:05:00,
2013-11-28 23:10:00,7.2,-8.8,29.12,WNW,292,0.0,1.1,47,0.00,,,0.00,VWS V14.01,2013-11-29 05:10:00,
2013-11-28 23:15:00,7.2,-8.8,29.12,WNW,292,0.0,0.0,47,0.00,,,0.00,VWS V14.01,2013-11-29 05:15:00,
2013-11-28 23:20:00,7.2,-8.8,29.12,NE,45,1.3,1.6,47,0.00,,,0.00,VWS V14.01,2013-11-29 05:20:00,
2013-11-28 23:25:00,7.2,-8.8,29.11,NE,45,0.0,1.3,47,0.00,,,0.00,VWS V14.01,2013-11-29 05:25:00,
2013-11-28 23:30:00,7.0,-9.0,29.12,NE,45,0.0,0.0,47,0.00,,,0.00,VWS V14.01,2013-11-29 05:30:00,
2013-11-28 23:35:00,7.2,-8.8,29.12,NE,45,0.0,0.0,47,0.00,,,0.00,VWS V14.01,2013-11-29 05:35:00,
2013-11-28 23:40:00,7.0,-9.0,29.12,NE,45,0.0,0.0,47,0.00,,,0.00,VWS V14.01,2013-11-29 05:40:00,
2013-11-28 23:45:00,6.8,-9.1,29.12,NE,45,0.0,0.0,47,0.00,,,0.00,VWS V14.01,2013-11-29 05:45:00,
2013-11-28 23:50:00,6.4,-9.5,29.11,ESE,112,0.0,0.0,47,0.00,,,0.00,VWS V14.01,2013-11-29 05:50:00,
2013-11-28 23:55:00,6.4,-9.5,29.12,SE,135,0.0,0.0,47,0.00,,,0.00,VWS V14.01,2013-11-29 05:55:00,